AirNav   Pilot Hours Calculator
 
 1214 users online  

KNRA Coupeville Naval Outlying Field
Coupeville, Washington, USA

GOING TO COUPEVILLE?


FAA INFORMATION EFFECTIVE 05 DECEMBER 2019

Location

FAA Identifier: NRA
Lat/Long: 48-11-00.0000N 122-38-00.0000W
48-11.000000N 122-38.000000W
48.1833333,-122.6333333
(estimated)
Elevation: 199 ft. / 61 m (estimated)
Variation: 19E (2000)
From city: 3 miles SE of COUPEVILLE, WA
Time zone: UTC -8 (UTC -7 during Daylight Saving Time)
Zip code: 98239

Airport Operations

Airport use: Private use, STRICTLY MILITARY USE ONLY.
Activation date: 02/2001
Control tower: no
ARTCC: SEATTLE CENTER
FSS: SEATTLE FLIGHT SERVICE STATION
Attendance: MON-FRI 0800-0001
ATNDD OTHER TIMES BY NOTAM
Wind indicator: yes
Segmented circle: no
Lights: PRIOR REQ. MIRL RY 14/32 OPRS AS RQRD FOR MIL OPNL REQUIREMENTS.

Airport Communications

WX AWOS-3 at OKH (4 nm N): 132.775 (360-675-8431)
WX AWOS-3P at 0S9 (11 nm SW): 119.025 (360-379-1199)
WX AWOS-3PT at AWO (19 nm E): 135.625 (360-435-8045)
WX AWOS-3 at BVS (19 nm NE): 121.125 (360-757-7767)

Nearby radio navigation aids

VOR radial/distance  VOR name  Freq  Var
CVVr116/5.2PENN COVE VOR/DME117.2019E
PAEr298/21.3PAINE VOR/DME110.6020E

 
NDB name  Hdg/Dist  Freq  Var  ID
SKAGIT/BAY VIEW191/19.124016EBVS -... ...- ...
FRIDAY HARBOR125/25.128417EFHR ..-. .... .-.
EDIZ HOOK068/30.933817ENOW -. --- .--

Airport Services

Runway Information

Runway 14/32

Dimensions: 5400 x 200 ft. / 1646 x 61 m
Surface: concrete
Runway edge lights: medium intensity
RUNWAY 14  RUNWAY 32
Traffic pattern: rightright

Airport Ownership and Management from official FAA records

Ownership: U.S. Navy
Owner: US NAVY
COMMANDING OFFICER ATTN: CODE AOT, 3730 NORTH CHARLES
OAK HARBOR, WA 98278
Phone 360-257-2681/2
Manager: US NAVY
COMMANDING OFFICER ATTN: CODE AOT, 3730 NORTH CHARLES
OAK HARBOR, WA 98278
Phone 360-257-2681/2

Additional Remarks

FULL STOP LNDG NOT AUZD UNLESS EMERGENCY.
WHIDBEY ISLAND NAS (AULT FLD) ATIS AVBL ON FREQ 134.15/280.3.
FOR CD CTC WHIDBEY APCH AT 360-257-3310.

Instrument Procedures

There are no published instrument procedures at KNRA.

Some nearby airports with instrument procedures:

KOKH - AJ Eisenberg Airport (4 nm N)
KNUW - Whidbey Island Naval Air Station (Ault Field) (10 nm N)
0S9 - Jefferson County International Airport (11 nm SW)
KAWO - Arlington Municipal Airport (19 nm E)
KBVS - Skagit Regional Airport (19 nm NE)
 
Loc | Ops | Rwys | IFR | FBO | Links
Com | Nav | Svcs | Stats | Notes
Area around KNRA (Coupeville Naval Outlying Field)
 
Road maps at: MapQuest Bing Google
 
Aerial photo
WARNING: Photo may not be current or correct
Aerial photo of KNRA (Coupeville Naval Outlying Field)
Taken in June 2006

Do you have a better or more recent aerial photo of Coupeville Naval Outlying Field that you would like to share? If so, please send us your photo.

 
Sectional chart

 
Airport distance calculator
Flying to Coupeville Naval Outlying Field? Find the distance to fly.

From to KNRA

Sunrise and sunset
Times for 12-Dec-2019
 Local
(UTC-8)
 Zulu
(UTC)
Morning civil twilight07:1715:17
Sunrise07:5315:53
Sunset16:1600:16
Evening civil twilight16:5200:52

Current date and time
Zulu (UTC)  12-Dec-2019 20:53:07
Local (UTC-8)  12-Dec-2019 12:53:07
 
METAR
KNUW 
10nm N 
121956Z 15016G23KT 10SM OVC021 11/06 A2985 RMK AO2 SLP106 T01110056 $
K0S9 
11nm SW 
122035Z AUTO 14008KT 10SM BKN015 BKN085 09/07 A2979 RMK AO2
KAWO 
19nm E 
122027Z AUTO 15013KT 10SM SCT016 BKN036 OVC095 08/07 A2985 RMK AO2 RAB15E25 PNO $
KBVS 
19nm NE 
122035Z AUTO 13009G16KT 10SM BKN024 BKN029 OVC080 10/07 A2983 RMK A01
TAF
KNUW 
10nm N 
1215/1315 16010G16KT 9999 VCSH FEW012 SCT025CB BKN050 BKN120 OVC250 640509 641406 530009 QNH2984INS TEMPO 1215/1220 16015G24KT 8000 SHRA BR SCT012 BKN025 OVC060 FM122000 15015G24T 9999 VCSH SCT012 BKN020 OVC060 640509 530009 QNH2986INS TEMPO 1220/1302 23007KT 4800 -SHRA BKN012 OVC025 BECMG 1302/1303 16008G15KT 9999 NSW SCT008 BKN050 640309 641202 500000 QNH2981INS T06/1215Z T04/1307Z FS30004
NOTAMs
Click for the latest NOTAMs
NOTAMs are issued by the DoD/FAA and will open in a separate window not controlled by AirNav.

 

 
 

Would you like to see your business listed on this page?

 If your business provides an interesting product or service to pilots, flight crews, aircraft, or users of the Coupeville Naval Outlying Field, you should consider listing it here.  To start the listing process, click on the button below
 
Add a business
 

Other Pages about Coupeville Naval Outlying Field

Update a link
 
Copyright © AirNav, LLC. All rights reserved. Privacy Policy  Contact